Date,TemperatureHighF,TemperatureAvgF,TemperatureLowF,DewpointHighF,DewpointAvgF,DewpointLowF,HumidityHigh,HumidityAvg,HumidityLow,PressureMaxIn,PressureMinIn,WindSpeedMaxMPH,WindSpeedAvgMPH,GustSpeedMaxMPH,PrecipitationSumIn
2013-1-1,36,32,25,25,16,9,69,52,44,29.80,29.66,28,9,34,0.00
2013-1-2,27,19,11,16,8,2,71,61,52,29.98,29.83,29,6,29,0.00
2013-1-3,24,14,2,2,-3,-7,67,47,28,30.07,29.95,17,4,17,0.00
2013-1-4,36,31,20,23,20,15,79,65,54,29.90,29.74,23,6,24,0.00
2013-1-5,40,32,20,24,20,16,84,62,39,30.20,29.77,18,4,25,0.00
2013-1-6,41,30,21,27,23,17,86,76,56,30.17,29.87,15,2,20,0.00
2013-1-7,36,32,25,27,22,15,88,68,43,30.35,29.89,17,3,20,0.00
2013-1-8,44,38,27,28,26,21,81,62,50,30.27,30.19,24,6,24,0.00
2013-1-9,43,35,22,33,26,20,92,73,58,30.34,29.94,13,2,14,0.00
2013-1-10,46,41,38,27,24,22,58,50,41,30.41,29.96,26,9,35,0.00
2013-1-11,39,34,24,31,26,20,88,74,66,30.45,30.22,7,1,7,0.00
2013-1-14,59,53,45,50,44,33,92,72,44,30.09,29.77,21,6,24,0.00
2013-1-15,39,37,32,25,24,23,71,60,53,30.25,30.16,9,2,10,0.00
2013-1-16,31,30,28,30,28,26,94,93,90,30.08,29.76,8,2,9,0.07
2013-1-17,40,35,28,32,28,20,92,75,57,30.03,29.80,20,4,22,0.37
2013-1-18,23,19,15,0,-2,-6,48,38,29,30.38,30.13,22,7,26,0.00
2013-1-19,46,36,20,31,21,5,71,55,40,30.32,29.81,18,6,26,0.00
2013-1-20,52,40,27,31,24,10,72,55,33,29.85,29.47,31,9,39,0.00
2013-1-21,26,23,19,18,7,2,85,50,41,30.03,29.87,13,5,16,0.00
2013-1-22,23,20,16,16,6,-3,90,56,37,29.95,29.72,21,8,22,0.00
2013-1-23,14,10,7,-1,-9,-14,63,41,28,30.08,29.99,24,8,28,0.00
2013-1-24,18,8,0,-8,-10,-12,61,44,26,30.07,29.99,26,7,31,0.00
2013-1-25,22,16,6,-6,-8,-10,48,33,25,30.24,30.07,18,6,20,0.00
2013-1-26,22,16,10,10,0,-9,83,54,27,30.17,29.94,16,6,23,0.00
2013-1-27,29,19,11,2,-1,-6,62,43,27,30.40,30.16,18,6,24,0.00
2013-1-28,28,22,16,22,8,-1,91,56,31,30.39,30.03,12,2,12,0.00
2013-1-29,32,29,24,29,25,21,91,87,84,30.13,30.03,6,2,6,0.07
2013-1-30,60,50,35,55,48,34,96,92,84,29.93,29.51,24,6,25,0.13
2013-1-31,59,46,35,57,34,18,92,64,39,29.40,28.90,36,13,37,0.47
2013-2-1,31,28,25,12,7,5,56,41,34,29.90,29.62,27,9,27,0.00
2013-2-4,28,24,20,14,9,4,73,52,39,29.80,29.68,29,10,29,0.00
2013-2-5,27,24,20,16,10,7,67,56,48,29.96,29.88,11,3,11,0.00
2013-2-6,37,31,22,24,20,12,91,65,46,30.08,29.89,21,6,23,0.02
2013-2-7,27,23,15,2,0,-1,54,38,31,30.46,30.36,16,4,16,0.00
2013-2-8,30,26,21,27,24,19,94,88,77,30.29,29.81,24,8,25,0.00
2013-2-9,20,17,14,16,11,1,91,77,55,30.13,29.54,25,11,38,0.00
2013-2-10,40,21,5,15,3,-3,81,50,17,30.33,30.13,12,3,22,0.00
2013-2-11,40,31,19,38,28,13,95,87,67,30.18,29.62,8,1,9,0.25
2013-2-12,43,39,34,28,27,25,76,63,54,29.71,29.59,29,10,32,0.00
2013-2-13,42,36,26,24,23,20,81,60,48,29.80,29.67,14,4,15,0.00
2013-2-14,44,36,28,25,21,19,80,57,39,29.91,29.63,15,3,15,0.00
2013-2-15,51,43,30,34,31,27,91,66,49,29.93,29.82,19,6,22,0.00
2013-2-16,36,33,28,29,25,16,93,75,53,29.88,29.66,10,4,17,0.02
2013-2-17,28,20,16,18,9,0,87,63,43,29.66,29.33,27,12,38,0.00
2013-2-18,30,24,13,1,-1,-5,54,35,23,30.02,29.79,33,12,36,0.00
2013-2-19,46,38,23,38,24,7,90,58,45,30.06,29.67,15,5,17,0.03
2013-2-20,41,32,27,39,21,10,94,65,42,29.64,29.46,27,10,29,0.00
2013-2-21,30,27,23,13,11,9,61,51,46,29.96,29.73,27,11,27,0.00
2013-2-22,37,32,23,23,19,17,82,59,48,30.33,30.25,15,5,15,0.00
2013-2-25,39,34,29,31,28,25,92,79,68,30.13,29.94,8,2,10,0.13
2013-2-26,41,36,27,34,28,25,95,74,59,30.27,30.20,15,5,15,0.00
2013-2-27,40,38,35,38,36,34,93,92,91,29.93,29.60,31,14,37,1.17
2013-2-28,46,39,32,37,34,30,94,83,70,29.59,29.47,7,2,9,0.01
2013-3-1,39,37,31,32,29,27,92,72,64,29.61,29.50,14,5,15,0.00
2013-3-2,40,36,30,29,26,24,80,69,61,29.61,29.55,12,4,16,0.00
2013-3-3,38,33,30,32,27,24,89,78,70,29.58,29.50,10,4,17,0.00
2013-3-4,37,34,29,26,23,20,81,63,54,29.61,29.51,27,10,27,0.00
2013-3-5,43,35,30,31,25,21,79,66,56,29.97,29.68,17,6,22,0.00
2013-3-6,38,36,33,34,31,29,91,83,71,30.06,30.00,32,11,32,0.11
2013-3-7,32,31,30,30,28,26,92,89,83,29.99,29.97,26,10,28,0.05
2013-3-8,39,32,28,30,28,26,94,85,60,30.04,29.89,20,6,22,0.08
2013-3-11,53,45,34,39,34,30,87,69,50,30.20,30.09,14,6,16,0.00
2013-3-12,56,51,44,51,48,43,94,88,79,30.00,29.68,22,8,25,0.15
2013-3-13,49,44,36,34,28,19,83,54,33,29.72,29.64,20,8,21,0.00
2013-3-14,33,31,26,17,13,9,56,48,40,29.73,29.64,24,10,27,0.00
2013-3-15,39,31,18,24,10,4,61,43,26,29.81,29.56,19,7,22,0.00
2013-3-18,37,29,16,21,8,1,65,42,25,30.40,30.21,15,4,15,0.00
2013-3-19,33,32,30,31,30,28,95,94,93,29.95,29.56,24,9,28,0.33
2013-3-20,36,32,24,22,20,18,85,62,47,29.72,29.66,27,10,29,0.12
2013-3-21,36,30,20,27,20,15,90,66,44,29.74,29.56,11,2,11,0.12
2013-3-22,38,34,26,20,18,15,71,53,42,29.64,29.57,21,7,21,0.03
2013-3-23,42,33,26,22,18,16,75,57,35,29.73,29.57,24,7,30,0.00
2013-3-24,44,37,30,29,23,19,80,57,43,29.75,29.67,15,5,20,0.00
2013-3-25,40,37,30,32,29,24,78,74,68,29.67,29.47,26,7,28,0.00
2013-3-26,49,40,34,29,24,18,77,55,30,29.68,29.48,15,5,17,0.00
2013-3-27,52,46,29,27,24,22,75,43,33,29.78,29.67,24,7,32,0.00
2013-3-28,46,42,36,35,32,29,88,67,52,29.95,29.85,12,3,16,0.02
2013-3-29,54,48,32,35,32,28,90,55,38,29.98,29.90,20,5,21,0.01
2013-3-30,55,45,33,32,23,13,80,48,20,30.04,29.93,13,4,22,0.00
2013-3-31,58,43,25,38,26,21,85,54,24,30.07,29.69,16,4,25,0.01
2013-4-1,61,48,40,42,39,22,94,73,44,29.70,29.44,29,7,31,0.11
2013-4-2,38,34,29,14,12,8,51,39,30,29.85,29.75,31,12,34,0.00
2013-4-3,44,35,28,16,11,7,53,39,22,29.99,29.86,27,11,30,0.00
2013-4-4,54,45,29,19,14,9,58,30,19,30.24,29.98,19,6,22,0.00
2013-4-5,59,49,37,29,25,19,66,41,23,29.88,29.56,21,6,21,0.00
2013-4-6,44,36,28,24,10,0,58,36,17,30.27,29.82,22,7,27,0.00
2013-4-7,54,40,24,39,25,12,78,56,34,30.27,29.94,25,6,34,0.00
2013-4-8,64,52,42,41,38,34,91,63,33,30.05,29.89,15,4,18,0.00
2013-4-9,68,55,44,51,43,38,93,68,43,30.04,29.80,25,6,28,0.05
2013-4-10,60,52,44,48,45,41,93,77,63,29.93,29.80,13,4,16,0.09
2013-4-11,51,46,43,43,37,25,94,72,45,30.04,29.88,12,4,14,0.08
2013-4-12,38,36,35,34,32,29,93,85,71,30.12,29.78,31,9,31,0.28
2013-4-13,51,41,34,38,35,31,93,80,55,29.87,29.70,15,4,18,0.14
2013-4-14,51,44,36,39,32,26,91,64,39,30.15,29.85,18,5,25,0.00
2013-4-15,55,47,31,37,33,28,88,58,40,30.33,30.25,19,6,20,0.00
2013-4-16,62,56,40,47,42,36,88,61,49,30.34,30.03,27,10,27,0.00
2013-4-17,64,58,52,40,33,27,64,39,27,30.22,30.07,21,6,22,0.01
2013-4-18,61,50,35,37,32,27,82,53,35,30.38,30.16,19,7,20,0.00
2013-4-19,73,67,57,61,59,55,94,76,60,29.95,29.66,26,10,30,0.00
2013-4-20,66,52,43,62,40,23,93,65,38,30.16,29.54,22,8,28,0.44
2013-4-21,51,41,32,30,22,17,79,49,27,30.63,30.15,19,5,24,0.07
2013-4-22,48,40,29,34,29,21,92,66,36,30.70,30.58,24,7,29,0.01
2013-4-23,40,40,38,38,37,34,93,92,84,30.44,30.18,18,5,18,0.02
2013-4-24,75,61,42,52,45,37,93,59,27,29.93,29.72,18,6,20,0.00
2013-4-25,63,56,47,38,31,23,71,41,25,30.12,29.95,24,7,24,0.03
2013-4-26,56,50,39,38,34,28,80,55,40,30.38,30.30,20,7,21,0.00
2013-4-27,61,50,35,40,36,32,94,61,37,30.38,30.23,16,3,18,0.00
2013-4-28,65,53,37,42,35,27,91,55,32,30.29,30.16,25,5,26,0.00
2013-4-29,67,56,46,48,38,25,83,52,27,30.23,30.12,20,4,23,0.00
2013-4-30,64,53,42,38,29,15,75,44,17,30.32,30.19,16,3,19,0.00
2013-5-1,64,52,36,38,34,27,87,54,27,30.42,30.31,18,3,19,0.00
2013-5-2,75,54,40,46,40,36,88,62,27,30.44,30.29,22,4,26,0.00
2013-5-3,57,48,41,44,40,36,86,72,60,30.48,30.32,22,5,23,0.00
2013-5-4,58,47,36,44,37,16,94,72,24,30.33,30.24,23,4,23,0.00
2013-5-5,56,45,33,41,37,31,94,74,53,30.29,30.20,18,4,20,0.00
2013-5-6,66,49,34,49,42,32,96,80,43,30.25,30.09,18,3,20,0.00
2013-5-7,73,61,42,59,51,41,95,72,48,30.13,30.03,19,4,20,0.00
2013-5-8,69,60,51,61,56,50,95,86,71,30.15,29.99,22,5,22,0.04
2013-5-9,66,58,55,59,56,54,96,93,77,30.00,29.84,12,2,13,0.69
2013-5-10,77,63,53,59,56,52,96,78,46,29.91,29.84,15,3,16,0.07
2013-5-11,69,63,58,61,58,54,92,82,68,29.86,29.64,22,5,25,0.01
2013-5-12,69,60,48,59,50,29,94,72,36,29.76,29.50,25,4,29,0.01
2013-5-13,56,48,37,33,30,26,84,52,33,29.98,29.75,21,5,24,0.00
2013-5-14,56,48,37,35,31,26,80,54,35,30.01,29.91,21,4,21,0.00
2013-5-15,64,51,34,50,38,30,90,66,32,30.01,29.61,21,4,24,0.00
2013-5-16,79,65,46,50,41,31,94,50,21,29.76,29.57,28,6,35,0.00
2013-5-17,67,58,48,43,41,35,81,55,32,30.16,29.75,18,5,21,0.00
2013-5-18,71,57,43,49,43,36,91,63,29,30.26,30.16,19,3,20,0.00
2013-5-19,68,55,46,53,49,44,95,81,50,30.31,30.17,18,3,19,0.05
2013-5-20,80,66,54,64,59,53,96,80,58,30.17,29.85,15,3,16,0.05
2013-5-21,75,59,49,65,56,48,96,90,71,29.98,29.82,20,4,21,0.03
2013-5-22,64,54,48,59,52,47,95,91,82,30.03,29.84,15,4,17,0.29
2013-5-23,75,62,52,68,59,51,96,90,77,29.88,29.75,26,4,27,0.08
2013-5-24,70,63,48,66,60,46,96,91,77,29.78,29.60,17,4,17,0.15
2013-5-25,49,46,40,47,44,37,95,94,89,29.77,29.65,20,6,22,0.02
2013-5-26,56,47,38,41,38,36,93,73,50,30.05,29.65,25,7,26,0.00
2013-5-27,70,55,38,44,38,32,93,59,27,30.12,30.01,25,4,26,0.00
2013-5-28,69,57,40,51,44,38,94,66,36,30.19,30.09,15,4,17,0.01
2013-5-29,68,61,57,63,58,51,96,89,77,30.13,29.92,12,2,12,0.00
2013-5-30,87,72,62,68,64,60,96,79,48,30.02,29.93,20,4,21,0.01
2013-5-31,92,80,65,70,65,62,90,64,37,30.03,29.87,19,4,19,0.00
2013-6-1,90,80,69,68,65,61,78,62,42,29.91,29.79,18,5,19,0.00
2013-6-2,88,77,68,69,66,61,87,69,42,29.82,29.65,33,7,33,0.00
2013-6-3,77,68,60,65,61,45,93,81,55,29.79,29.69,14,3,16,0.00
2013-6-4,69,60,49,48,44,41,75,57,40,30.04,29.77,18,5,22,0.00
2013-6-5,73,61,48,52,46,40,91,61,35,30.14,30.03,14,3,15,0.00
2013-6-6,72,63,53,55,49,45,83,61,44,30.14,30.03,19,3,19,0.00
2013-6-7,58,54,52,54,52,50,95,93,83,30.07,29.76,18,4,18,0.00
2013-6-8,77,61,52,63,56,50,96,84,59,29.94,29.56,18,5,18,0.00
2013-6-9,78,67,54,58,55,53,94,70,45,30.10,29.94,16,3,17,0.00
2013-6-10,66,60,54,58,55,52,94,84,66,30.15,29.97,14,4,14,0.00
2013-6-11,61,56,54,56,54,53,95,93,85,29.98,29.52,22,4,22,0.01
2013-6-12,68,61,55,57,54,52,96,79,60,29.76,29.50,25,5,30,0.00
2013-6-13,66,56,50,56,52,48,94,86,62,29.76,29.62,7,2,12,0.00
2013-6-14,74,59,51,58,52,49,95,80,46,29.70,29.59,12,2,14,0.01
2013-6-15,77,66,53,54,48,41,92,56,28,29.88,29.70,22,4,22,0.00
2013-6-16,74,66,55,61,53,47,82,65,45,29.88,29.65,15,3,17,0.00
2013-6-17,84,68,57,63,59,54,94,75,40,29.85,29.71,18,4,20,0.00
2013-6-18,72,62,57,62,58,55,95,89,70,29.89,29.83,17,2,17,0.00
2013-6-19,72,62,55,55,52,47,95,72,42,30.09,29.85,15,2,15,0.00
2013-6-20,77,65,49,56,50,45,93,63,35,30.21,30.08,14,2,15,0.00
2013-6-21,83,71,58,63,57,52,85,63,35,30.19,30.12,16,3,18,0.00
2013-6-22,83,72,62,64,60,56,82,66,45,30.16,30.04,16,4,16,0.00
2013-6-23,88,76,65,72,64,56,79,68,57,30.10,29.92,19,5,22,0.00
2013-6-24,91,79,70,73,69,66,91,72,51,29.96,29.80,16,5,19,0.00
2013-6-25,89,78,68,72,68,64,91,72,49,29.86,29.66,18,5,23,0.00
2013-6-26,81,73,66,72,68,65,94,83,64,29.80,29.66,13,2,14,0.00
2013-6-27,71,64,59,66,62,58,96,93,83,29.82,29.70,13,4,14,0.00
2013-6-28,81,69,58,72,65,57,96,88,70,29.71,29.43,25,6,25,0.00
2013-6-29,83,74,69,70,68,66,94,81,63,29.67,29.46,22,6,23,0.00
2013-6-30,84,76,68,73,69,66,92,80,63,29.87,29.66,17,4,17,0.00
2013-7-1,81,73,70,73,70,68,95,90,75,30.02,29.87,15,3,15,0.00
2013-7-2,82,71,60,73,67,58,95,88,68,30.16,30.01,13,4,15,0.00
2013-7-3,87,74,59,74,67,58,96,82,60,30.15,30.07,16,4,19,0.00
2013-7-4,91,81,72,74,72,69,93,75,55,30.14,30.02,16,4,19,0.00
2013-7-5,92,83,74,75,73,70,89,72,51,30.10,29.97,16,4,20,0.00
2013-7-6,89,82,74,74,70,63,90,70,49,30.01,29.91,19,4,19,0.00
2013-7-7,90,78,67,76,69,62,89,75,57,29.96,29.83,17,2,17,0.00
2013-7-8,82,74,64,74,70,62,94,86,74,30.02,29.84,15,3,18,0.07
2013-7-9,71,66,63,66,64,61,95,90,84,30.05,29.99,9,2,9,0.01
2013-7-10,84,72,65,75,69,63,96,88,72,30.02,29.73,20,4,21,0.01
2013-7-11,81,75,71,73,71,67,95,87,72,29.86,29.71,10,2,11,0.01
2013-7-12,74,69,65,69,60,55,94,72,54,30.15,29.86,20,4,20,0.00
2013-7-13,77,69,64,69,64,58,94,84,77,30.25,30.14,13,3,13,0.00
2013-7-14,89,77,67,74,70,66,96,80,53,30.24,30.14,11,2,12,0.00
2013-7-15,90,80,70,74,71,68,95,76,51,30.14,30.03,12,2,13,0.00
2013-7-16,91,79,68,72,68,64,92,69,44,30.11,30.04,14,3,15,0.00
2013-7-17,93,82,69,74,70,64,92,70,45,30.12,29.92,13,2,13,0.00
2013-7-18,90,80,75,74,71,67,86,74,49,29.95,29.88,18,4,19,0.00
2013-7-19,95,84,72,78,73,68,90,70,47,29.89,29.65,22,5,24,0.00
2013-7-20,91,82,74,76,73,65,87,75,55,29.75,29.58,18,4,22,0.21
2013-7-21,78,72,66,66,64,59,92,75,56,29.93,29.75,14,4,14,0.00
2013-7-22,80,71,64,69,66,63,96,85,59,29.96,29.83,16,4,16,0.00
2013-7-23,79,71,68,75,69,65,96,94,83,29.83,29.48,27,3,27,0.65
2013-7-24,82,74,64,72,66,53,96,78,57,29.91,29.52,16,3,19,0.02
2013-7-25,64,59,57,56,53,48,94,81,65,30.06,29.90,15,3,18,0.01
2013-7-26,69,64,58,67,61,56,95,92,83,30.01,29.88,14,3,15,0.01
2013-7-27,82,71,58,66,62,56,94,76,50,30.00,29.92,12,3,13,0.01
2013-7-28,78,69,64,71,65,62,94,88,75,29.97,29.90,14,3,14,0.01
2013-7-29,82,72,65,71,67,64,95,84,62,29.99,29.90,19,3,19,0.00
2013-7-30,80,70,60,66,59,54,96,71,44,30.04,29.97,14,3,16,0.01
2013-7-31,80,70,59,62,58,53,91,69,43,30.09,29.98,11,2,11,0.00
2013-8-1,80,70,61,65,62,59,95,76,53,29.99,29.82,19,3,22,0.00
2013-8-2,80,70,63,66,62,56,95,76,45,29.83,29.73,16,3,19,0.01
2013-8-3,77,69,64,63,62,60,92,77,58,29.81,29.72,17,3,20,0.00
2013-8-4,77,67,57,60,56,52,89,70,46,29.84,29.71,14,3,17,0.00
2013-8-5,74,63,52,53,48,41,92,62,31,30.00,29.83,19,4,20,0.00
2013-8-6,76,63,48,56,51,46,93,67,40,30.09,29.99,13,2,14,0.00
2013-8-7,79,67,53,60,54,50,94,67,39,30.13,30.04,14,3,15,0.03
2013-8-8,80,71,64,70,65,55,92,82,70,30.07,29.94,15,4,17,0.02
2013-8-9,72,71,71,70,69,68,94,91,89,29.97,29.84,14,4,16,0.01
2013-8-21,86,74,60,66,63,58,93,71,46,30.08,29.97,8,2,13,0.00
2013-8-22,85,74,66,72,66,62,90,77,51,29.98,29.76,8,4,16,0.00
2013-8-23,78,71,64,68,59,48,92,67,41,30.08,29.76,8,4,16,0.00
2013-8-24,75,64,52,52,48,43,85,58,34,30.28,30.08,8,2,14,0.00
2013-8-25,81,67,51,56,51,48,91,62,34,30.31,30.13,9,2,19,0.00
2013-8-26,78,71,64,66,61,55,82,72,61,30.13,29.81,11,4,19,0.00
2013-8-27,82,73,66,69,66,62,94,79,58,29.84,29.77,12,3,15,0.32
2013-8-28,82,69,61,68,63,59,96,83,61,29.93,29.80,15,2,17,0.00
2013-8-29,64,63,61,63,60,56,95,90,84,30.02,29.90,14,3,19,0.00
2013-8-30,82,69,59,67,62,57,91,79,59,29.98,29.76,15,3,15,0.00
2013-8-31,79,73,68,72,69,66,95,88,78,29.77,29.72,14,3,14,0.07
2013-9-1,79,72,68,74,70,66,94,90,81,29.83,29.73,13,3,13,0.05
2013-9-2,78,73,71,74,70,68,94,90,79,29.82,29.65,15,2,16,0.01
2013-9-3,79,72,63,70,67,56,95,83,66,29.76,29.63,14,3,18,0.00
2013-9-4,79,67,57,60,56,53,92,69,44,29.87,29.75,19,3,20,0.00
2013-9-5,69,62,51,60,51,40,91,69,38,30.09,29.80,14,2,14,0.00
2013-9-6,69,56,42,45,42,37,92,62,37,30.19,30.03,14,2,14,0.00
2013-9-7,78,63,49,57,49,44,83,64,39,30.04,29.79,15,3,16,0.00
2013-9-8,71,62,51,60,51,39,93,69,39,30.05,29.68,22,4,22,0.00
2013-9-9,68,56,41,49,43,38,91,65,41,30.19,30.04,15,3,17,0.00
2013-9-10,74,65,55,69,61,49,93,85,77,30.10,29.96,17,3,21,0.00
2013-9-11,94,80,69,76,71,65,95,76,49,30.00,29.87,18,4,23,0.00
2013-9-12,86,76,66,74,69,64,95,78,59,29.91,29.61,24,4,27,0.00
2013-9-13,77,66,58,67,62,53,96,87,65,29.70,29.50,13,2,14,0.00
2013-9-14,65,60,55,54,52,50,86,75,64,29.93,29.70,13,4,15,0.00
2013-9-15,60,60,60,51,51,51,71,71,71,29.93,29.93,2,2,4,0.00
2013-9-16,60,60,60,51,51,51,71,71,71,29.93,29.93,2,2,4,0.00
2013-9-17,60,60,60,51,51,51,71,71,71,29.93,29.93,2,2,4,0.00
2013-9-18,60,60,60,51,51,51,71,71,71,29.93,29.93,2,2,4,0.00
2013-9-19,78,64,48,56,52,44,91,66,39,30.08,29.93,8,2,9,0.00
2013-9-20,78,62,48,58,53,47,95,75,43,30.02,29.93,11,2,12,0.00
2013-9-21,74,64,51,64,58,49,95,83,60,29.97,29.67,23,5,27,0.00
2013-9-22,70,63,51,66,56,43,94,78,51,29.78,29.54,24,6,25,0.00
2013-9-23,60,52,43,44,41,38,85,68,54,29.95,29.77,18,5,22,0.00
2013-9-24,65,51,40,45,41,37,91,71,44,29.94,29.75,13,3,22,0.00
2013-9-25,65,53,43,50,46,41,91,77,57,29.93,29.82,13,2,13,0.00
2013-9-26,66,57,52,50,48,45,87,73,53,30.07,29.92,11,2,11,0.00
2013-9-27,64,57,49,53,50,47,94,79,62,30.20,30.06,12,2,14,0.00
2013-9-28,70,56,44,56,50,43,96,80,53,30.28,30.19,21,2,21,0.00
2013-9-29,66,52,45,52,47,43,96,84,52,30.21,30.06,12,2,15,0.00
2013-9-30,66,54,46,52,48,44,96,83,53,30.08,29.91,11,1,12,0.00
2013-10-1,75,58,44,56,50,42,96,76,43,29.92,29.78,13,2,14,0.00
2013-10-2,79,65,52,61,56,50,95,76,53,29.89,29.76,17,4,21,0.00
2013-10-3,76,62,51,56,51,44,94,69,36,30.03,29.89,9,2,10,0.00
2013-10-4,62,56,49,57,53,46,95,88,78,30.03,29.97,7,1,8,0.00
2013-10-5,58,56,55,56,55,54,95,95,93,30.06,29.99,4,0,5,0.00
2013-10-7,76,69,56,69,64,55,96,86,72,29.99,29.75,33,8,39,0.00
2013-10-8,54,51,50,47,46,45,83,82,78,30.09,30.03,8,3,9,0.00
2013-10-26,54,42,27,34,28,24,92,62,32,30.10,29.82,13,4,25,0.00
2013-10-27,52,46,39,38,34,28,85,62,41,30.00,29.75,12,5,22,0.00
2013-10-28,56,43,31,35,30,23,87,61,38,30.30,30.00,14,4,28,0.00
2013-10-29,48,35,26,29,24,18,87,65,31,30.40,30.29,7,1,11,0.00
2013-10-30,51,37,28,40,33,25,93,84,63,30.31,30.14,6,0,11,0.03
2013-10-31,61,46,30,57,44,28,95,91,82,30.19,29.74,10,2,17,0.12
2013-11-1,70,64,60,61,57,52,93,79,65,29.73,29.39,32,8,37,0.08
2013-11-2,66,54,44,52,44,40,93,71,40,29.68,29.53,10,1,16,0.02
2013-11-3,37,34,31,17,16,14,56,47,39,30.37,30.23,11,4,14,0.00
2013-11-4,41,32,24,20,17,13,80,56,33,30.65,30.36,15,2,15,0.00
2013-11-5,49,36,22,34,26,18,86,69,44,30.66,30.45,13,2,13,0.00
2013-11-6,60,48,40,48,39,32,85,72,50,30.45,29.98,18,4,20,0.00
2013-11-7,65,53,38,56,48,30,92,83,68,29.99,29.61,23,5,23,0.16
2013-11-8,46,39,28,33,27,22,81,64,51,29.97,29.76,24,6,25,0.00
2013-11-10,43,42,40,33,32,31,73,69,61,29.79,29.74,20,4,24,0.05
2013-11-11,50,44,37,32,28,24,69,53,36,30.04,29.78,21,5,21,0.00
2013-11-12,48,34,26,37,23,14,89,65,52,30.13,29.82,20,5,21,0.12
2013-11-13,34,28,22,16,13,10,73,56,37,30.24,30.09,18,4,19,0.00
2013-11-14,50,37,28,25,20,15,62,50,34,30.09,29.97,19,4,20,0.00
2013-11-15,61,45,30,26,19,13,65,39,15,30.13,30.03,14,3,20,0.00
2013-11-16,60,44,32,32,28,21,81,57,25,30.26,30.12,5,1,11,0.00
2013-11-17,51,50,48,50,48,46,96,95,94,29.98,29.78,7,1,7,0.02
2013-11-18,64,57,47,60,46,31,96,69,45,29.78,29.46,24,5,26,0.16
2013-11-19,48,38,30,31,21,15,59,51,40,30.22,29.59,29,9,30,0.00
2013-11-20,40,32,27,15,14,11,58,48,31,30.55,30.22,17,6,19,0.00
2013-11-21,47,33,18,29,19,13,83,60,34,30.61,30.30,11,2,14,0.00
2013-11-22,44,41,39,43,38,29,95,87,67,30.30,29.86,5,1,6,0.16
2013-11-23,45,38,28,44,26,15,96,62,34,29.84,29.70,20,8,27,0.00
2013-11-24,22,20,19,-1,-2,-5,37,35,34,30.14,30.02,29,10,30,0.00
2013-11-25,32,24,15,15,1,-10,55,38,18,30.31,30.13,21,6,23,0.00
2013-11-26,38,33,29,33,20,14,93,59,47,30.27,29.98,14,3,14,0.12
2013-11-27,62,50,35,59,47,32,96,92,80,29.98,29.15,27,8,30,1.19
2013-11-28,36,30,23,32,16,5,85,57,36,30.37,29.38,31,9,31,0.07
2013-11-29,31,25,20,16,11,2,79,55,33,30.61,30.36,16,3,16,0.00
2013-11-30,32,23,12,22,13,7,81,67,53,30.73,30.36,10,1,12,0.00
2013-12-1,35,34,34,34,33,33,95,95,94,30.00,29.95,6,2,7,0.04
2013-12-2,37,36,34,36,34,33,96,95,94,29.95,29.85,6,2,7,0.01
2013-12-3,47,37,30,36,33,27,95,86,60,29.88,29.78,10,3,11,0.00
2013-12-4,41,33,27,29,27,25,93,80,56,30.14,29.88,13,2,14,0.01
2013-12-5,49,38,27,48,35,24,96,90,81,30.15,29.85,14,1,14,0.00
2013-12-6,55,49,41,53,44,27,96,84,51,30.01,29.78,14,3,14,0.04
2013-12-8,27,27,26,18,17,15,69,66,61,30.51,30.43,5,1,5,0.00
2013-12-9,36,30,23,35,27,15,96,90,60,30.44,29.82,8,2,10,0.10
2013-12-10,34,30,24,31,26,13,95,85,59,29.93,29.71,23,4,23,0.02
2013-12-11,31,25,19,19,16,14,84,70,54,30.14,29.93,22,5,25,0.00
2013-12-12,23,19,11,17,6,-1,85,59,35,30.21,30.00,21,4,23,0.00
2013-12-13,27,20,15,17,10,6,78,64,53,30.16,29.92,22,5,23,0.01
2013-12-15,25,24,22,22,20,19,91,88,86,29.68,29.59,0,0,0,0.00
2013-12-16,25,22,14,20,13,6,90,68,49,30.14,29.68,23,3,23,0.00
2013-12-17,18,10,0,15,6,-4,90,81,66,30.23,29.89,14,2,16,0.00
2013-12-18,33,24,14,21,18,11,94,77,57,30.01,29.81,18,5,21,0.00
2013-12-19,42,31,24,26,22,19,84,70,48,30.05,29.89,20,4,24,0.14
2013-12-20,53,39,27,36,30,24,89,71,49,30.06,29.83,18,2,18,0.41
2013-12-22,33,32,32,32,31,30,96,95,95,29.97,29.91,7,2,8,0.01
2013-12-23,36,32,30,35,31,29,96,96,95,30.03,29.89,9,2,10,0.28
2013-12-24,36,31,25,35,20,12,96,66,51,30.14,29.98,16,4,16,0.19
2013-12-25,25,17,12,14,4,-1,78,57,43,30.49,30.13,18,4,21,0.00
2013-12-26,31,22,14,27,18,8,92,84,74,30.45,30.02,9,1,10,0.00
2013-12-27,32,26,21,21,19,17,89,75,59,30.21,30.12,17,4,18,0.01
2013-12-29,37,36,34,36,34,32,95,94,93,29.52,29.36,18,7,21,0.33
2013-12-30,41,32,16,34,22,6,94,71,42,30.11,29.45,25,5,25,0.36
2013-12-31,23,17,11,14,4,-6,75,56,45,30.11,29.96,14,3,17,0.00
2014-1-1,25,19,11,12,7,4,77,59,44,30.32,30.11,18,3,19,0.00
2014-1-2,19,9,-1,14,6,-5,95,84,69,30.30,29.82,21,6,26,0.00